TimePST,TemperatureF,Dew PointF,Humidity,Sea Level PressureIn,VisibilityMPH,Wind Direction,Wind SpeedMPH,Gust SpeedMPH,PrecipitationIn,Events,Conditions,WindDirDegrees,DateUTC
12:02 AM,48.2,46.4,93,30.14,2.0,NNW,3.5,-,N/A,,Clear,340,2012-11-23 08:02:00
12:53 AM,48.0,46.0,93,30.13,3.0,Calm,Calm,-,N/A,,Clear,0,2012-11-23 08:53:00
1:00 AM,48.2,46.4,93,30.14,2.0,SSE,4.6,-,N/A,,Clear,150,2012-11-23 09:00:00
1:39 AM,44.6,42.8,93,30.13,1.8,Calm,Calm,-,N/A,,Clear,0,2012-11-23 09:39:00
1:46 AM,44.6,42.8,93,30.13,2.0,Calm,Calm,-,N/A,,Clear,0,2012-11-23 09:46:00
1:53 AM,43.0,42.1,97,30.12,2.0,Calm,Calm,-,N/A,,Clear,0,2012-11-23 09:53:00
2:28 AM,44.6,42.8,93,30.13,0.8,Calm,Calm,-,N/A,,Clear,0,2012-11-23 10:28:00
2:40 AM,44.6,42.8,93,30.13,2.0,Calm,Calm,-,N/A,,Clear,0,2012-11-23 10:40:00
2:53 AM,45.0,43.0,93,30.12,2.5,Calm,Calm,-,N/A,,Clear,0,2012-11-23 10:53:00
3:06 AM,46.4,44.6,93,30.13,3.0,Calm,Calm,-,N/A,,Clear,0,2012-11-23 11:06:00
3:16 AM,48.2,44.6,87,30.13,2.5,Calm,Calm,-,N/A,,Clear,0,2012-11-23 11:16:00
3:26 AM,48.2,46.4,93,30.13,1.8,Calm,Calm,-,N/A,,Clear,0,2012-11-23 11:26:00
3:53 AM,46.0,44.1,93,30.12,2.0,North,3.5,-,N/A,,Clear,10,2012-11-23 11:53:00
4:12 AM,44.6,42.8,93,30.12,3.0,NNW,3.5,-,N/A,,Clear,340,2012-11-23 12:12:00
4:26 AM,46.4,44.6,93,30.13,2.5,Calm,Calm,-,N/A,,Clear,0,2012-11-23 12:26:00
4:34 AM,48.2,46.4,93,30.13,3.0,Calm,Calm,-,N/A,,Clear,0,2012-11-23 12:34:00
4:48 AM,44.6,42.8,93,30.13,2.5,Calm,Calm,-,N/A,,Clear,0,2012-11-23 12:48:00
5:00 AM,44.6,42.8,93,30.13,3.0,Calm,Calm,-,N/A,,Clear,0,2012-11-23 13:00:00
5:53 AM,42.1,39.9,92,30.14,3.0,Calm,Calm,-,N/A,,Clear,0,2012-11-23 13:53:00
6:36 AM,42.8,39.2,87,30.15,2.5,North,3.5,-,N/A,,Clear,10,2012-11-23 14:36:00
6:45 AM,44.6,42.8,93,30.16,10.0,ENE,4.6,-,N/A,,Clear,60,2012-11-23 14:45:00
6:53 AM,45.0,42.1,90,30.16,10.0,Calm,Calm,-,N/A,,Clear,0,2012-11-23 14:53:00
7:53 AM,52.0,48.0,86,30.17,10.0,Calm,Calm,-,N/A,,Clear,0,2012-11-23 15:53:00
8:53 AM,63.0,48.0,58,30.17,10.0,Calm,Calm,-,N/A,,Clear,0,2012-11-23 16:53:00
9:53 AM,70.0,41.0,35,30.17,10.0,Calm,Calm,-,N/A,,Clear,0,2012-11-23 17:53:00
10:53 AM,75.0,41.0,29,30.15,10.0,Calm,Calm,-,N/A,,Clear,0,2012-11-23 18:53:00
11:53 AM,80.1,42.1,26,30.12,10.0,Calm,Calm,-,N/A,,Partly Cloudy,0,2012-11-23 19:53:00
12:53 PM,82.0,45.0,27,30.10,10.0,North,4.6,-,N/A,,Clear,360,2012-11-23 20:53:00
1:53 PM,82.9,35.1,18,30.08,10.0,WNW,3.5,-,N/A,,Partly Cloudy,290,2012-11-23 21:53:00
2:53 PM,80.1,44.1,28,30.07,10.0,NNW,4.6,-,N/A,,Partly Cloudy,330,2012-11-23 22:53:00
3:53 PM,75.9,43.0,31,30.07,10.0,NW,6.9,-,N/A,,Partly Cloudy,310,2012-11-23 23:53:00
4:53 PM,75.0,36.0,24,30.06,10.0,Calm,Calm,-,N/A,,Partly Cloudy,0,2012-11-24 00:53:00
5:53 PM,66.0,46.0,48,30.08,10.0,SE,3.5,-,N/A,,Clear,130,2012-11-24 01:53:00
6:53 PM,63.0,51.1,65,30.10,10.0,SE,3.5,-,N/A,,Clear,140,2012-11-24 02:53:00
7:53 PM,54.0,48.0,80,30.11,10.0,Calm,Calm,-,N/A,,Clear,0,2012-11-24 03:53:00
8:53 PM,53.1,48.0,83,30.11,4.0,North,3.5,-,N/A,,Haze,10,2012-11-24 04:53:00
9:53 PM,53.1,45.0,74,30.12,6.0,North,3.5,-,N/A,,Haze,10,2012-11-24 05:53:00
10:53 PM,48.9,42.1,77,30.12,7.0,Calm,Calm,-,N/A,,Clear,0,2012-11-24 06:53:00
11:53 PM,50.0,39.0,66,30.11,7.0,Calm,Calm,-,N/A,,Clear,0,2012-11-24 07:53:00